Hurricane Symbol View the latest observations near Atlantic Remnants Of Alberto.

Station NCDV2 - 8635027 - Dahlgren, VA Image indicating link to RSS feed of recent meteorological observations for station NCDV2


Conditions at NCDV2 as of
(5:48 pm EDT)
2148 GMT on 06/20/2024:
     

Click on the graph icon in the table below to see a time series plot of the last five days of that observation.

5-day plot - Wind Direction Wind Direction (WDIR): SE ( 130 deg true )
5-day plot - Wind Speed Wind Speed (WSPD): 11.1 kts
5-day plot - Wind Gust Wind Gust (GST): 12.0 kts
5-day plot - Atmospheric Pressure Atmospheric Pressure (PRES):30.23 in
5-day plot - Air Temperature Air Temperature (ATMP): 82.0 °F
5-day plot - Water Temperature Water Temperature (WTMP): 85.6 °F
5-day plot - Wind Speed at 10 Meters Wind Speed at 10 meters (WSPD10M): 11.7 kts
5-day plot - Wind Speed at 20 Meters Wind Speed at 20 meters (WSPD20M): 11.7 kts
5-day plot -  Wind Speed, Wind Gust and Atmospheric Pressure Combined plot of Wind Speed, Gust, and Air Pressure
NOS Water Level Observation Network Water Level
Previous observations
TIME
(EDT)
5-day plot - Wind Direction
WDIR
 
5-day plot - Wind Speed
WSPD
kts
5-day plot - Wind Gust
GST
kts
5-day plot - Wave Height
WVHT
ft
5-day plot - Dominant Wave Period
DPD
sec
5-day plot - Average Wave Period
APD
sec
5-day plot - Mean Wave Direction
MWD
 
5-day plot - Atmospheric Pressure
PRES
in
5-day plot - Pressure Tendency
PTDY
in
5-day plot - Air Temperature
ATMP
°F
5-day plot - Water Temperature
WTMP
°F
5-day plot - Dew Point
DEWP
°F
5-day plot - Salinity
SAL
psu
5-day plot - Visibility
VIS
nmi
5-day plot - Tide (above MLLW)
TIDE
ft
2024-06-20 05:42 pm SE 11.1 12.0----30.23- 82.0 85.6----
2024-06-20 05:36 pm SE 9.9 12.0----30.23- 82.2 85.6----
2024-06-20 05:30 pm SE 11.1 12.0----30.24- 82.0 85.6----
2024-06-20 05:24 pm SE 8.9 11.1----30.24- 82.6 85.5----
2024-06-20 05:18 pm SE 9.9 11.1----30.24- 82.4 85.5----
2024-06-20 05:12 pmESE 8.0 9.9----30.24- 82.6 85.5----
2024-06-20 05:06 pm SE 8.9 9.9----30.24- 82.6 84.9----
2024-06-20 05:00 pmESE 8.0 8.9----30.25-0.05 82.6 84.4----
2024-06-20 04:54 pm SE 8.9 9.9----30.25- 82.4 84.0----
2024-06-20 04:48 pm SE 8.9 9.9----30.25- 82.6 84.0----
2024-06-20 04:42 pmESE 8.0 8.9----30.25- 82.6 83.1----
2024-06-20 04:36 pmESE 8.0 9.9----30.26- 82.4 83.1----
2024-06-20 04:30 pm SE 8.0 8.9----30.26- 82.6 82.9----
2024-06-20 04:24 pmESE 8.0 8.0----30.26- 82.6 82.8----
2024-06-20 04:18 pmESE 7.0 8.0----30.26- 82.9 82.8----
2024-06-20 04:12 pmESE 6.0 8.0----30.27- 82.9 82.6----
2024-06-20 04:06 pmESE 6.0 7.0----30.27- 82.9 82.6----
2024-06-20 04:00 pmESE 6.0 6.0----30.27-0.04 82.9 82.4----
2024-06-20 03:54 pmESE 5.1 6.0----30.27- 82.9 82.4----
2024-06-20 03:48 pmESE 5.1 6.0----30.27- 82.8 82.6----
2024-06-20 03:42 pmESE 5.1 7.0----30.27- 82.8 82.6----
2024-06-20 03:36 pmESE 6.0 7.0----30.27- 82.4 82.6----
2024-06-20 03:30 pmESE 6.0 7.0----30.28-- 82.4----
2024-06-20 03:24 pmESE 5.1 6.0----30.28-- 82.2----
2024-06-20 03:18 pmESE 5.1 6.0----30.28- 82.6 82.2----
2024-06-20 03:12 pmESE 6.0 7.0----30.28- 82.6 82.0----
2024-06-20 03:06 pmESE 5.1 7.0----30.28- 82.8 82.2----
2024-06-20 03:00 pmESE 6.0 7.0----30.28-0.04 82.6 82.2----
2024-06-20 02:54 pm E 6.0 7.0----30.28- 82.6 82.4----
2024-06-20 02:48 pmESE 6.0 7.0----30.29- 82.2 82.2----
2024-06-20 02:42 pmESE 6.0 7.0----30.29- 82.2 82.0----
2024-06-20 02:36 pmESE 5.1 7.0----30.29- 82.2 82.0----
2024-06-20 02:30 pmESE 6.0 7.0----30.29- 82.2 81.9----
2024-06-20 02:24 pmESE 5.1 7.0----30.29- 82.0 82.0----
2024-06-20 02:18 pmESE 6.0 7.0----30.29- 81.7 82.2----
2024-06-20 02:12 pmESE 6.0 7.0----30.29- 82.0 82.4----
2024-06-20 02:06 pmESE 6.0 7.0----30.29- 82.6 82.9----
2024-06-20 02:00 pmESE 6.0 8.0----30.30-0.03 81.9 83.5----
2024-06-20 01:54 pmESE 6.0 7.0----30.30- 81.7 83.8----
2024-06-20 01:48 pmESE 6.0 8.0----30.30- 81.9 83.8----
2024-06-20 01:42 pmESE 6.0 8.0----30.30- 81.3 83.8----
2024-06-20 01:36 pmESE 8.0 8.9----30.30- 81.3 83.8----
2024-06-20 01:30 pm E 7.0 8.9----30.31- 81.7 83.8----
2024-06-20 01:24 pm E 7.0 8.9----30.31- 81.9 83.7----
2024-06-20 01:18 pm E 7.0 8.9----30.31- 81.9 83.5----
2024-06-20 01:12 pm E 7.0 8.9----30.31- 81.3 83.5----
2024-06-20 01:06 pm E 8.9 9.9----30.31- 81.7 83.5----
2024-06-20 01:00 pm E 8.0 9.9----30.31-0.02 82.0 83.5----
2024-06-20 12:54 pmESE 8.0 9.9----30.32- 81.1 83.5----
2024-06-20 12:48 pm E 8.0 9.9----30.32- 81.7 83.5----
2024-06-20 12:42 pmESE 8.9 9.9----30.32- 80.8 83.5----
2024-06-20 12:36 pmESE 8.0 9.9----30.32- 81.0 83.7----
2024-06-20 12:30 pmESE 8.0 11.1----30.32- 80.4 83.5----
2024-06-20 12:24 pm E 8.9 11.1----30.32- 81.0 83.1----
2024-06-20 12:18 pmESE 8.9 11.1----30.32- 80.8 82.9----
2024-06-20 12:12 pmESE 8.9 9.9----30.32- 80.2 82.6----
2024-06-20 12:06 pmESE 8.0 9.9----30.32- 80.4 82.4----
2024-06-20 12:00 pmESE 7.0 9.9----30.32-0.03 80.8 82.4----
2024-06-20 11:54 amESE 8.0 9.9----30.32- 79.9 82.4----
2024-06-20 11:48 amESE 7.0 8.9----30.32- 80.1 82.9----
2024-06-20 11:42 amESE 6.0 8.9----30.32- 79.7 83.5----
2024-06-20 11:36 amESE 7.0 8.9----30.33- 79.5 83.5----
2024-06-20 11:30 amESE 8.0 8.9----30.32- 79.0 83.3----
2024-06-20 11:24 amESE 6.0 8.0----30.33- 79.5 83.1----
2024-06-20 11:18 amESE 7.0 8.0----30.33- 79.2 82.8----
2024-06-20 11:12 amESE 7.0 8.0----30.33- 79.2 82.9----
2024-06-20 11:06 amESE 6.0 8.9----30.33- 79.2 82.6----
2024-06-20 11:00 amESE 6.0 8.0----30.33+0.00 79.2 82.2----
2024-06-20 10:54 am E 6.0 7.0----30.33- 78.8 82.4----
2024-06-20 10:48 amESE 5.1 7.0----30.33- 79.0 82.0----
2024-06-20 10:42 amESE 6.0 7.0----30.33- 79.0 81.5----
2024-06-20 10:36 amESE 5.1 6.0----30.33- 79.3 81.3----
2024-06-20 10:30 amESE 4.1 5.1----30.33- 78.8 81.1----
2024-06-20 10:24 amESE 4.1 6.0----30.33- 79.0 81.0----
2024-06-20 10:18 amESE 5.1 6.0----30.33- 79.2 81.0----
2024-06-20 10:12 am- 0.0 1.9----30.33- 80.1 81.0----
2024-06-20 10:06 am SE 2.9 2.9----30.34- 78.4 81.0----
2024-06-20 10:00 am SE 2.9 5.1----30.33+0.01 78.6 81.0----
2024-06-20 09:54 amSSW 2.9 4.1----30.34- 78.1 81.0----
2024-06-20 09:48 am S 4.1 6.0----30.34- 77.2 81.0----
2024-06-20 09:42 amSSW 4.1 6.0----30.34- 76.8 81.0----
2024-06-20 09:36 amSSW 4.1 7.0----30.34- 76.8 81.0----
2024-06-20 09:30 amSSW 5.1 7.0----30.34- 76.5 81.0----
2024-06-20 09:24 am SW 5.1 7.0----30.34- 75.9 81.0----
2024-06-20 09:18 am SW 5.1 7.0----30.34- 75.9 81.0----
2024-06-20 09:12 am S 4.1 7.0----30.34- 75.9 80.8----
2024-06-20 09:06 am S 4.1 7.0----30.34- 75.4 80.8----
2024-06-20 09:00 am S 4.1 7.0----30.35+0.03 74.8 80.8----
2024-06-20 08:54 am S 5.1 7.0----30.35- 74.3 80.8----
2024-06-20 08:48 am S 5.1 6.0----30.34- 73.8 80.8----
2024-06-20 08:42 amSSW 4.1 5.1----30.35- 73.6 80.8----
2024-06-20 08:36 am SW 2.9 5.1----30.34- 73.2 80.8----
2024-06-20 08:30 amSSW 4.1 5.1----30.34- 73.4 80.8----
2024-06-20 08:24 am SW 2.9 5.1----30.34- 73.2 80.8----
2024-06-20 08:18 amWSW 4.1 5.1----30.34- 72.9 80.8----
2024-06-20 08:12 am SW 2.9 5.1----30.34- 73.2 80.8----
2024-06-20 08:06 amSSW 4.1 6.0----30.34- 73.0 80.6----
2024-06-20 08:00 am SW 5.1 7.0----30.34+0.03 73.2 80.6----
2024-06-20 07:54 amSSW 5.1 7.0----30.33- 73.4 80.6----
2024-06-20 07:48 am SW 4.1 7.0----30.33- 73.4 80.6----
2024-06-20 07:42 am SW 4.1 6.0----30.33- 73.4 80.6----
2024-06-20 07:36 am S 1.9 4.1----30.33- 73.4 80.6----
2024-06-20 07:30 am SW 1.9 4.1----30.33- 73.4 80.6----
2024-06-20 07:24 am S 1.0 1.9----30.33- 73.2 80.6----
2024-06-20 07:18 am S 1.0 1.9----30.32- 72.5 80.6----
2024-06-20 07:12 amSSW 1.0 1.9----30.32- 71.8 80.6----
2024-06-20 07:06 amSSW 1.0 1.9----30.32- 71.2 80.8----
2024-06-20 07:00 am SW 1.9 2.9----30.32+0.02 71.1 80.8----
2024-06-20 06:54 amSSW 1.0 2.9----30.32- 70.9 80.8----
2024-06-20 06:48 am S 1.9 2.9----30.32- 70.5 80.8----
2024-06-20 06:42 am S 1.9 2.9----30.32- 70.3 80.8----
2024-06-20 06:36 am S 2.9 2.9----30.32- 70.3 80.8----
2024-06-20 06:30 am S 1.9 2.9----30.32- 70.7 80.8----
2024-06-20 06:24 am S 1.9 2.9----30.32- 70.9 81.0----
2024-06-20 06:18 am S 1.0 1.9----30.32- 71.1 81.0----
2024-06-20 06:12 amSSE 1.9 2.9----30.32- 71.1 81.0----
2024-06-20 06:06 amSSE 1.9 2.9----30.32- 71.1 81.0----
2024-06-20 06:00 am S 1.9 2.9----30.32+0.02 70.9 81.0----
2024-06-20 05:54 am S 1.9 2.9----30.32- 71.1 81.0----
2024-06-20 05:48 am S 1.9 1.9----30.31- 71.2 81.0----
2024-06-20 05:42 amSSE 1.9 1.9----30.31- 71.1 81.0----
2024-06-20 05:36 am SW 1.0 1.9----30.31- 70.7 81.0----
2024-06-20 05:30 amSSW 1.0 1.9----30.31- 71.2 81.0----
2024-06-20 05:24 am SW 1.0 2.9----30.31- 71.1 81.0----
2024-06-20 05:18 amSSW 1.0 1.9----30.31- 71.4 81.0----
2024-06-20 05:12 am S 1.0 1.9----30.31- 71.1 81.0----
2024-06-20 05:06 amSSE 1.0 1.9----30.31- 71.4 81.0----
2024-06-20 05:00 amSSE 1.9 2.9----30.31+0.02 71.4 81.0----
2024-06-20 04:54 am SE 1.9 2.9----30.31- 71.1 81.0----
2024-06-20 04:48 amSSE 1.0 1.9----30.30- 70.3 81.0----
2024-06-20 04:42 am- 0.0 1.9----30.30- 70.0 81.0----
2024-06-20 04:36 am- 0.0 1.0----30.30- 70.0 81.0----
2024-06-20 04:30 am- 0.0 1.0----30.30- 70.3 81.0----
2024-06-20 04:24 am- 0.0 0.0----30.30- 70.5 81.0----
2024-06-20 04:18 am- 0.0 1.0----30.30- 70.5 81.0----
2024-06-20 04:12 am- 0.0 1.0----30.30- 71.2 81.0----
2024-06-20 04:06 am S 1.0 1.9----30.31- 71.2 81.0----
2024-06-20 04:00 am S 1.9 1.9----30.30+0.00 71.2 81.0----
2024-06-20 03:54 amSSE 1.9 2.9----30.30- 71.4 81.0----
2024-06-20 03:48 amSSE 1.9 1.9----30.30- 71.4 81.0----
2024-06-20 03:42 am S 1.9 2.9----30.30- 71.4 81.1----
2024-06-20 03:36 am S 1.9 2.9----30.30- 71.6 81.1----
2024-06-20 03:30 amSSE 1.9 2.9----30.30- 72.0 81.1----
2024-06-20 03:24 amSSE 1.9 4.1----30.29- 71.8 81.1----
2024-06-20 03:18 amSSE 1.9 2.9----30.29- 72.0 81.1----
2024-06-20 03:12 amSSE 2.9 4.1----30.29- 72.0 81.1----
2024-06-20 03:06 amSSE 2.9 4.1----30.29- 72.0 81.1----
2024-06-20 03:00 amSSE 1.9 2.9----30.29-0.02 72.0 81.1----
2024-06-20 02:54 amSSE 1.9 2.9----30.29- 72.1 81.3----
2024-06-20 02:48 am S 1.9 1.9----30.29- 72.1 81.3----
2024-06-20 02:42 amSSE 1.9 2.9----30.29- 72.3 81.3----
2024-06-20 02:36 amSSE 1.9 2.9----30.29- 72.3 81.3----
2024-06-20 02:30 am S 1.0 2.9----30.29- 72.5 81.3----
2024-06-20 02:24 am S 1.9 2.9----30.29- 72.5 81.3----
2024-06-20 02:18 am S 1.0 2.9----30.29- 72.7 81.3----
2024-06-20 02:12 am S 1.9 2.9----30.29- 72.7 81.3----
2024-06-20 02:06 am- 0.0 2.9----30.29- 72.0 81.3----
2024-06-20 02:00 am- 0.0 1.9----30.29-0.02 72.0 81.3----
2024-06-20 01:54 am- 0.0 1.0----30.29- 72.1 81.3----
2024-06-20 01:48 am- 0.0 1.9----30.29- 72.7 81.3----
2024-06-20 01:42 am SW 1.0 2.9----30.29- 73.4 81.3----
2024-06-20 01:36 am S 1.0 1.9----30.29- 73.4 81.3----
2024-06-20 01:30 am S 1.0 1.9----30.29- 73.4 81.3----
2024-06-20 01:24 am S 1.0 1.9----30.29- 73.4 81.3----
2024-06-20 01:18 am S 1.9 2.9----30.29- 73.6 81.3----
2024-06-20 01:12 am S 1.9 1.9----30.29- 73.8 81.3----
2024-06-20 01:06 am S 1.9 2.9----30.29- 73.8 81.3----
2024-06-20 01:00 am S 1.9 2.9----30.30-0.01 73.8 81.3----
2024-06-20 12:54 amSSE 1.9 2.9----30.30- 73.9 81.3----
2024-06-20 12:48 am S 1.0 1.9----30.30- 74.1 81.3----
2024-06-20 12:42 amSSE 1.9 2.9----30.30- 74.3 81.3----
2024-06-20 12:36 am S 1.9 2.9----30.30- 74.5 81.3----
2024-06-20 12:30 amSSE 2.9 5.1----30.30- 74.5 81.3----
2024-06-20 12:24 amSSE 2.9 5.1----30.30- 74.7 81.3----
2024-06-20 12:18 amSSE 2.9 4.1----30.31- 74.7 81.5----
2024-06-20 12:12 am SE 1.9 2.9----30.31- 74.5 81.5----
2024-06-20 12:06 amSSE 1.9 2.9----30.31- 74.5 81.7----
2024-06-20 12:00 amESE 2.9 2.9----30.31+0.02 74.7 81.9----
2024-06-19 11:54 pm SE 2.9 4.1----30.32- 74.5 82.0----
2024-06-19 11:48 pmSSE 1.9 2.9----30.31- 74.5 82.0----
2024-06-19 11:42 pm S 2.9 4.1----30.32- 74.7 82.0----
2024-06-19 11:36 pm S 1.9 4.1----30.32- 74.8 82.0----
2024-06-19 11:30 pm S 2.9 6.0----30.32- 75.2 82.0----
2024-06-19 11:24 pmSSE 4.1 5.1----30.32- 75.2 82.2----
2024-06-19 11:18 pmSSE 5.1 6.0----30.32- 75.4 82.4----
2024-06-19 11:12 pmSSE 5.1 7.0----30.32- 75.6 83.1----
2024-06-19 11:06 pmSSE 5.1 7.0----30.32- 75.7 83.1----
2024-06-19 11:00 pmSSE 5.1 7.0----30.31+0.04 75.9 83.1----
2024-06-19 10:54 pmSSE 5.1 7.0----30.31- 76.1 83.1----
2024-06-19 10:48 pmSSE 6.0 7.0----30.31- 76.3 83.3----
2024-06-19 10:42 pmSSE 6.0 8.0----30.31- 76.5 83.3----
2024-06-19 10:36 pmSSE 6.0 8.0----30.31- 76.8 83.3----
2024-06-19 10:30 pmSSE 6.0 8.0----30.31- 77.0 83.3----
2024-06-19 10:24 pmSSE 7.0 8.0----30.31- 77.4 83.3----
2024-06-19 10:18 pmSSE 7.0 9.9----30.31- 77.5 83.3----
2024-06-19 10:12 pmSSE 7.0 8.9----30.31- 77.5 83.3----
2024-06-19 10:06 pmSSE 6.0 8.9----30.31- 77.9 83.3----
2024-06-19 10:00 pmSSE 7.0 8.9----30.31+0.03 77.9 83.3----
2024-06-19 09:54 pmSSE 6.0 8.9----30.30- 78.1 83.3----
2024-06-19 09:48 pmSSE 6.0 8.9----30.30- 78.1 83.3----
2024-06-19 09:42 pmSSE 7.0 8.9----30.30- 78.1 83.3----
2024-06-19 09:36 pmSSE 7.0 8.9----30.30- 78.3 83.3----
2024-06-19 09:30 pmSSE 7.0 8.0----30.30- 78.6 83.3----
2024-06-19 09:24 pmSSE 5.1 6.0----30.29- 78.6 83.3----
2024-06-19 09:18 pm S 5.1 7.0----30.29- 78.8 83.5----
2024-06-19 09:12 pm S 6.0 7.0----30.29- 79.0 83.5----
2024-06-19 09:06 pmSSE 7.0 8.9----30.29- 79.3 83.5----
2024-06-19 09:00 pm S 6.0 8.9----30.29+0.00 79.3 83.5----
2024-06-19 08:54 pm S 6.0 8.0----30.29- 79.5 83.5----
2024-06-19 08:48 pm S 6.0 8.0----30.29- 79.7 83.7----
2024-06-19 08:42 pm S 6.0 8.0----30.29- 80.1 83.7----
2024-06-19 08:36 pmSSE 5.1 7.0----30.28- 80.2 83.7----
2024-06-19 08:30 pmSSE 7.0 12.0----30.28- 80.6 83.7----
2024-06-19 08:24 pmESE 9.9 14.0----30.28- 80.6 83.7----
2024-06-19 08:18 pmESE 12.0 14.0----30.28- 80.4 83.7----
2024-06-19 08:12 pmESE 12.0 15.0----30.28- 80.4 83.7----
2024-06-19 08:06 pmESE 12.0 15.0----30.28- 80.6 83.7----
2024-06-19 08:00 pmESE 13.0 15.9----30.27-0.01 80.6 83.7----
2024-06-19 07:54 pmESE 11.1 15.0----30.27- 80.8 83.7----
2024-06-19 07:48 pmESE 12.0 15.0----30.27- 81.0 83.7----
2024-06-19 07:42 pmESE 13.0 15.0----30.27- 81.0 83.8----
2024-06-19 07:36 pmESE 9.9 14.0----30.27- 81.1 83.8----
2024-06-19 07:30 pmESE 11.1 14.0----30.27- 81.1 83.8----
2024-06-19 07:24 pmESE 12.0 14.0----30.27- 81.3 83.8----
2024-06-19 07:00 pmESE 11.1 14.0----30.28-0.02 81.7 84.0----
2024-06-19 06:54 pmESE 11.1 14.0----30.28- 81.7 84.2----
2024-06-19 06:48 pmESE 9.9 14.0----30.28-- 84.2----
2024-06-19 06:42 pmESE 11.1 13.0----30.28-- 84.2----
2024-06-19 06:36 pmESE 11.1 14.0----30.28-- 84.2----
2024-06-19 06:30 pmESE 12.0 14.0----30.28- 81.7 84.2----
2024-06-19 06:24 pmESE 11.1 13.0----30.28- 81.9 84.2----
2024-06-19 06:18 pmESE 12.0 14.0----30.28- 81.7-----
2024-06-19 06:12 pmESE 11.1 14.0----30.28- 81.7-----
2024-06-19 06:06 pmESE 12.0 15.0----30.29- 81.7-----
2024-06-19 06:00 pmESE 12.0 14.0----30.29-0.01 81.5 84.4----
2024-06-19 05:54 pmESE 12.0 14.0----30.28- 81.5 84.4----